04.05.2024;16:00;76
04.05.2024;15:00;78
04.05.2024;14:00;75
04.05.2024;13:00;75
04.05.2024;12:00;71
04.05.2024;11:00;49
04.05.2024;10:00;50
04.05.2024;09:00;41
04.05.2024;08:00;18
04.05.2024;07:00;11
04.05.2024;06:00;20
04.05.2024;05:00;18
04.05.2024;04:00;19
04.05.2024;03:00;28
04.05.2024;02:00;42
04.05.2024;01:00;40
04.05.2024;00:00;38
03.05.2024;23:00;50
03.05.2024;22:00;32
03.05.2024;21:00;41
03.05.2024;20:00;64
03.05.2024;19:00;72
03.05.2024;18:00;78
03.05.2024;17:00;87
03.05.2024;16:00;82
03.05.2024;15:00;76
03.05.2024;14:00;66
03.05.2024;13:00;62
03.05.2024;12:00;57
03.05.2024;11:00;49
03.05.2024;10:00;39
03.05.2024;09:00;30
03.05.2024;08:00;24
03.05.2024;07:00;25
03.05.2024;06:00;24
03.05.2024;05:00;33
03.05.2024;04:00;40
03.05.2024;03:00;40
03.05.2024;02:00;44
03.05.2024;01:00;50
03.05.2024;00:00;55
02.05.2024;23:00;58
02.05.2024;22:00;62
02.05.2024;21:00;73
02.05.2024;20:00;91
02.05.2024;19:00;99
02.05.2024;18:00;96
02.05.2024;17:00;102
